This is the latest recevied weather packets stored in our database for station/object N2XP-3. If no packets are shown the sender has not sent any weather packets the latest 10 day(s).
| Time | Temp. | Humidity | Pressure | Rain* | Wind** | Luminosity | Snow |
|---|---|---|---|---|---|---|---|
| 1777660225 | 18.89° C | 44% | 1008.6 hPa | 0 mm | 1.34 m/s, 277° | - | - |
| 1777659627 | 18.89° C | 46% | 1008.6 hPa | 0 mm | 0.89 m/s, 224° | - | - |
| 1777659322 | 18.89° C | 46% | 1008.7 hPa | 0 mm | 1.34 m/s, 46° | - | - |
| 1777659134 | 18.33° C | 45% | 1008.7 hPa | 0 mm | 0.89 m/s, 333° | - | - |
| 1777659019 | 18.33° C | 45% | 1008.7 hPa | 0 mm | 0.89 m/s, 333° | - | - |
| 1777658765 | 18.33° C | 46% | 1008.8 hPa | 0 mm | 0.45 m/s, 72° | - | - |
| 1777658720 | 18.33° C | 46% | 1008.8 hPa | 0 mm | 0.45 m/s, 72° | - | - |
| 1777658497 | 18.33° C | 45% | 1008.8 hPa | 0 mm | 1.34 m/s, 20° | - | - |
| 1777658416 | 18.33° C | 45% | 1008.8 hPa | 0 mm | 1.34 m/s, 20° | - | - |
| 1777658199 | 18.33° C | 45% | 1008.9 hPa | 0 mm | 0.89 m/s, 226° | - | - |
| 1777658117 | 18.33° C | 45% | 1008.9 hPa | 0 mm | 0.89 m/s, 226° | - | - |
| 1777657655 | 18.33° C | 46% | 1009.2 hPa | 0 mm | 1.34 m/s, 191° | - | - |
| 1777657513 | 18.33° C | 46% | 1009.2 hPa | 0 mm | 1.34 m/s, 191° | - | - |
| 1777657303 | 18.33° C | 49% | 1009.1 hPa | 0 mm | 1.79 m/s, 273° | - | - |
| 1777657214 | 18.33° C | 49% | 1009.1 hPa | 0 mm | 1.79 m/s, 273° | - | - |
| 1777657027 | 17.78° C | 48% | 1009.1 hPa | 0 mm | 1.34 m/s, 28° | - | - |
| 1777656915 | 17.78° C | 48% | 1009.1 hPa | 0 mm | 1.34 m/s, 28° | - | - |
| 1777656611 | 17.78° C | 49% | 1009.2 hPa | 0 mm | 0 m/s | - | - |
| 1777656013 | 17.22° C | 47% | 1009.1 hPa | 0 mm | 0.89 m/s, 308° | - | - |
| 1777655547 | 18.33° C | 48% | 1009.3 hPa | 0 mm | 2.24 m/s, 263° | - | - |
| 1777655408 | 18.33° C | 48% | 1009.3 hPa | 0 mm | 2.24 m/s, 263° | - | - |
| 1777654914 | 17.78° C | 49% | 1009.4 hPa | 0 mm | 1.34 m/s, 221° | - | - |
| 1777654800 | 17.78° C | 49% | 1009.4 hPa | 0 mm | 1.34 m/s, 221° | - | - |
| 1777654612 | 17.22° C | 50% | 1009.4 hPa | 0 mm | 1.79 m/s, 277° | - | - |
| 1777654500 | 17.22° C | 50% | 1009.4 hPa | 0 mm | 1.79 m/s, 277° | - | - |
* Rain latest hour (hover to see other rain measurements)
** Current wind speed in m/s (hover to see current wind gust speed)